[[{"header":{"parameterUnit":"m.s-1","parameterCategory":1,"la1":30.2991,"la2":30.254,"lo1":-89.0895,"lo2":-89.0444,"dy":0.0017,"dx":0.0017,"nx":28,"ny":28,"refTime":"2024-10-10T09:00:00:Z","depth":0,"parameterNumber":2,"parameterNumberName":"U-component_of_WINDS"},"data":[0,0,0,0,0,0,0,0,0,0,0,0,0,0,0,0,0,0,0,0,0,0,0,0,0,0,0,0,0,0,0,0,0,0,0,0,0,0,0,0,0,0,0,0,0,0,0,0,0,0,0,0,0,0,0,0,0,0,0.0136,0.0135,0,0.0118,0.0118,0.0118,0.0141,0.0142,0.0143,0.0144,0.0123,0.0122,0.0121,0,0,0,0,0,0,0,0,0,0,0,0,0,0.0189,0.0188,0.0136,0.0135,0.0135,0.0118,0.0118,0.0118,0.0141,0.0142,0.0143,0.0144,0.0124,0.0122,0.0121,0,0,0,0,0,0,0,0,0,0,0,0,0,0.0168,0.0187,0.0136,0.0145,0.0146,0.0118,0.0118,0.0117,0.0141,0.0142,0.0143,0.0145,0.0124,0.0122,0.012,0.0082,0,0,0.0114,0.0113,0,0,0,0,0,0,0,0,0.0169,0.0166,0.0144,0.0144,0.0145,0.0133,0.0129,0.0106,0.014,0.0143,0.0144,0.0145,0.0125,0.0123,0.0117,0.0081,0.0081,0.0114,0.0113,0.0112,0.0111,0,0,0,0,0,0,0,0.017,0.0167,0.0129,0.0143,0.0144,0.015,0.0148,0.0125,0.0127,0.0142,0.0144,0.0142,0.0126,0.0119,0.0117,0.008,0.0114,0.0112,0.0111,0.011,0.0013,0.0011,0,0,0,0,0,0,0.0171,0.0168,0.0129,0.0128,0.016,0.0148,0.0146,0.0136,0.0127,0.0127,0.0141,0.0143,0.0122,0.0119,0.0116,0.0071,0.0112,0.011,0.0109,0.0014,0.0012,0.0011,0,0,0,0,0,0,0.0172,0.0167,0.013,0.0148,0.0144,0.0145,0.0134,0.0135,0.0128,0.0126,0.0126,0.0133,0.0123,0.0119,0.0091,0.007,0.0109,0.0107,0.0016,0.0014,0.0012,-0.002,0,0,0,0,0,0,0.0173,0.0167,0.0153,0.0148,0.0143,0.0105,0.0132,0.0133,0.0124,0.0127,0.0119,0.0119,0.0124,0.0094,0.0089,0.0068,0.0106,0.0018,0.0015,0.0012,-0.0017,-0.0023,-0.0028,0,0,0,0,0,0.0175,0.0144,0.0152,0.0147,0.0125,0.0104,0.0101,0.0107,0.0123,0.0108,0.0107,0.0119,0.0074,0.0091,0.0085,0.0064,0.0019,0.0016,0.0013,-0.0015,-0.0022,-0.0028,0,0,0,0,0,0,0.0146,0.0144,0.0152,0.0119,0.0111,0.0108,0.0089,0.0099,0.0087,0.009,0.0098,0.0096,0.0065,0.0062,0.0081,0.0027,0.0049,0.0045,0.003,0.0023,0.0018,0.0018,0.0104,0,0,0,0,0,0.0136,0.0119,0.0118,0.0088,0.0084,0.0088,0.0078,0.0084,0.0076,0.0073,0.007,0.0061,0.0045,0.0034,0.002,-0.0017,-0.0019,-0.0034,-0.0039,-0.0044,-0.0048,-0.0068,-0.0075,0.0001,0.0001,0.0001,0,0,0.0114,0.0111,0.0099,0.0083,0.0077,0.0059,0.0084,0.0064,0.0051,0.007,0.0043,0.0041,0.0032,-0.0001,-0.0015,-0.0005,-0.0069,-0.0048,-0.0051,-0.0053,-0.0072,-0.0079,-0.0085,-0.0001,-0.0001,-0.0001,0,0,0.0065,0.0061,0.0036,0.0031,0.0023,0.0026,0.002,0.0015,0.0015,-0.0012,0.0002,-0.0014,-0.0041,-0.0048,-0.0056,-0.0105,-0.0095,-0.011,-0.0139,-0.0158,-0.0164,-0.0169,-0.0188,-0.0194,-0.0114,-0.0114,-0.0114,0,0.0038,0.0012,0.0022,0.0001,-0.0007,0.0011,-0.0015,-0.002,-0.0033,-0.0039,-0.0026,-0.006,-0.0065,-0.0099,-0.0111,-0.0117,-0.0124,-0.011,-0.0164,-0.0169,-0.0174,-0.0191,-0.0198,-0.0116,-0.0116,-0.0116,-0.0115,0,-0.002,-0.0038,-0.0057,-0.0069,-0.0079,-0.0102,-0.0096,-0.0107,-0.01,-0.0099,-0.0126,-0.013,-0.0146,-0.0153,-0.0146,-0.0186,-0.0179,-0.0165,-0.0143,-0.0183,-0.02,-0.0206,-0.0119,-0.0118,-0.0118,-0.0117,0,0,-0.0091,-0.0095,-0.0102,-0.0107,-0.0113,-0.0128,-0.0149,-0.0164,-0.0174,-0.0182,-0.0201,-0.0224,-0.0211,-0.0219,-0.0212,-0.0229,-0.0269,-0.0213,-0.0213,-0.0224,-0.0313,-0.0325,-0.0333,-0.0261,-0.0262,-0.0263,-0.0313,0,-0.0141,-0.0178,-0.0169,-0.0207,-0.0224,-0.0206,-0.0225,-0.0231,-0.023,-0.0244,-0.0243,-0.026,-0.024,-0.0245,-0.0261,-0.0261,-0.0287,-0.0257,-0.0279,-0.028,-0.028,-0.0341,-0.0354,-0.0401,-0.0319,-0.032,-0.0321,0,-0.0205,-0.0215,-0.0254,-0.0256,-0.0263,-0.028,-0.0292,-0.0306,-0.0312,-0.031,-0.0318,-0.0308,-0.033,-0.0306,-0.0336,-0.0316,-0.0324,-0.0325,-0.0327,-0.033,-0.0305,-0.0348,-0.0416,-0.0423,-0.0331,-0.033,-0.0329,0,-0.0254,-0.0277,-0.0303,-0.0307,-0.0311,-0.0324,-0.0326,-0.033,-0.0339,-0.0349,-0.0355,-0.0368,-0.0375,-0.0385,-0.0379,-0.0362,-0.0411,-0.0386,-0.041,-0.0411,-0.0423,-0.0423,-0.0495,-0.0426,-0.0426,-0.0425,-0.0425,0,-0.0312,-0.0336,-0.0325,-0.0342,-0.0369,-0.0357,-0.0385,-0.0385,-0.0389,-0.0405,-0.039,-0.0405,-0.0395,-0.041,-0.0405,-0.0431,-0.0434,-0.0434,-0.0433,-0.0436,-0.0437,-0.0443,-0.0441,-0.0427,-0.0427,-0.0427,-0.0426,0,-0.0372,-0.0365,-0.0393,-0.0393,-0.0394,-0.0414,-0.0414,-0.043,-0.0426,-0.0447,-0.0451,-0.0446,-0.0463,-0.0457,-0.0475,-0.0471,-0.0505,-0.0499,-0.0503,-0.0502,-0.0527,-0.0526,-0.0608,-0.0618,-0.054,-0.0541,-0.0542,0,-0.0411,-0.0429,-0.0431,-0.044,-0.0443,-0.0459,-0.0467,-0.0456,-0.0466,-0.0473,-0.0488,-0.0502,-0.0514,-0.0541,-0.054,-0.0553,-0.0548,-0.0575,-0.055,-0.0553,-0.055,-0.055,-0.0552,-0.0581,-0.0582,-0.0583,-0.0584,0,-0.048,-0.0475,-0.0488,-0.0499,-0.0509,-0.0517,-0.0524,-0.0533,-0.0522,-0.0534,-0.055,-0.0559,-0.0576,-0.0591,-0.0603,-0.0605,-0.0593,-0.0591,-0.0598,-0.0603,-0.0605,-0.0606,-0.0519,-0.059,-0.0589,-0.0589,-0.0589,-0.0588,-0.0532,-0.0547,-0.0551,-0.0565,-0.0568,-0.0575,-0.0589,-0.0587,-0.06,-0.0613,-0.0605,-0.0625,-0.0629,-0.0643,-0.0647,-0.0662,-0.0651,-0.0661,-0.0663,-0.0666,-0.067,-0.0601,-0.0664,-0.0664,-0.0663,-0.0663,-0.0663,0,-0.0601,-0.0602,-0.0615,-0.0625,-0.0636,-0.0621,-0.0628,-0.0639,-0.0655,-0.066,-0.0671,-0.0689,-0.0704,-0.0702,-0.0715,-0.0727,-0.0722,-0.0731,-0.0731,-0.0732,-0.0678,-0.0672,-0.0735,-0.0735,-0.0735,-0.0735,-0.0735,-0.0735,-0.0639,-0.0665,-0.066,-0.0687,-0.0688,-0.0706,-0.0711,-0.0717,-0.0721,-0.0742,-0.0753,-0.0751,-0.0754,-0.0766,-0.0779,-0.0778,-0.0784,-0.0796,-0.0793,-0.0743,-0.0736,-0.0729,-0.0723,-0.0797,-0.0797,-0.0846,-0.0846,-0.0847]},{"header":{"parameterUnit":"m.s-1","parameterCategory":1,"la1":30.2991,"la2":30.254,"lo1":-89.0895,"lo2":-89.0444,"dy":0.0017,"dx":0.0017,"nx":28,"ny":28,"refTime":"2024-10-10T09:00:00:Z","depth":0,"parameterNumber":3,"parameterNumberName":"V-component_of_WINDS"},"data":[0,0,0,0,0,0,0,0,0,0,0,0,0,0,0,0,0,0,0,0,0,0,0,0,0,0,0,0,0,0,0,0,0,0,0,0,0,0,0,0,0,0,0,0,0,0,0,0,0,0,0,0,0,0,0,0,0,0,-4.9955,-4.9956,0,-5.0046,-5.0047,-5.0048,-4.9979,-4.9977,-4.9974,-4.9971,-5.0058,-5.0063,-5.0068,0,0,0,0,0,0,0,0,0,0,0,0,0,-4.9719,-4.9724,-4.9955,-4.9957,-4.9958,-5.0045,-5.0047,-5.0048,-4.998,-4.9976,-4.9973,-4.9969,-5.0056,-5.0062,-5.0068,0,0,0,0,0,0,0,0,0,0,0,0,0,-4.9817,-4.9725,-4.9955,-4.9935,-4.9934,-5.0045,-5.0047,-5.0048,-4.9981,-4.9976,-4.9972,-4.9968,-5.0054,-5.0061,-5.0069,-5.0204,0,0,-5.0092,-5.0095,0,0,0,0,0,0,0,0,-4.9811,-4.9825,-4.9936,-4.9936,-4.9935,-4.9997,-4.9995,-5.01,-4.9982,-4.9963,-4.9971,-4.9966,-5.0041,-5.0049,-5.0076,-5.0208,-5.0212,-5.0093,-5.0097,-5.0101,-5.0103,0,0,0,0,0,0,0,-4.9805,-4.9821,-4.9991,-4.9938,-4.9937,-4.9919,-4.9928,-5.0015,-5.0025,-4.9964,-4.9959,-4.9971,-5.0039,-5.0068,-5.0077,-5.0213,-5.0093,-5.0099,-5.0104,-5.0107,-5.0461,-5.0466,0,0,0,0,0,0,-4.9801,-4.9816,-4.9988,-4.9994,-4.9861,-4.9927,-4.9937,-4.9981,-5.0024,-5.0026,-4.9975,-4.9968,-5.0058,-5.0068,-5.008,-5.0241,-5.0101,-5.0108,-5.0112,-5.0456,-5.0462,-5.0467,0,0,0,0,0,0,-4.9796,-4.9817,-4.9984,-4.9904,-4.9924,-4.9936,-4.9986,-4.9986,-5.0014,-5.0032,-5.0033,-5.0003,-5.0055,-5.0069,-5.0174,-5.0243,-5.0111,-5.0118,-5.045,-5.0458,-5.0465,-5.0565,0,0,0,0,0,0,-4.9789,-4.9815,-4.9868,-4.9905,-4.9928,-5.0079,-4.9991,-4.9991,-5.0028,-5.002,-5.0059,-5.0061,-5.0052,-5.0163,-5.0182,-5.0251,-5.0124,-5.0444,-5.0454,-5.0462,-5.0555,-5.0575,-5.0591,0,0,0,0,0,-4.9781,-4.9891,-4.9871,-4.9892,-4.9995,-5.0083,-5.0096,-5.0085,-5.0034,-5.0087,-5.0098,-5.006,-5.0233,-5.0175,-5.0195,-5.0268,-5.044,-5.0451,-5.0462,-5.0547,-5.0571,-5.0591,0,0,0,0,0,0,-4.986,-4.9896,-4.9874,-5.0,-5.0039,-5.0072,-5.0137,-5.011,-5.0163,-5.0153,-5.0135,-5.0145,-5.0255,-5.0272,-5.0206,-5.0401,-5.0328,-5.0343,-5.0386,-5.0409,-5.0426,-5.042,-5.013,0,0,0,0,0,-4.9892,-4.9963,-4.999,-5.0098,-5.0119,-5.0125,-5.0163,-5.0152,-5.0191,-5.0207,-5.0226,-5.0264,-5.0327,-5.0368,-5.0427,-5.0557,-5.0564,-5.0617,-5.0635,-5.065,-5.0663,-5.0733,-5.0757,-5.0503,-5.0503,-5.0503,0,0,-4.9959,-4.9988,-5.0033,-5.0115,-5.0144,-5.0216,-5.014,-5.0219,-5.0272,-5.0218,-5.0319,-5.0335,-5.0376,-5.0494,-5.0547,-5.0511,-5.0735,-5.0664,-5.0675,-5.0681,-5.0747,-5.0771,-5.0792,-5.0511,-5.0509,-5.0508,0,0,-5.0118,-5.0147,-5.0241,-5.0272,-5.0318,-5.0321,-5.0344,-5.0381,-5.039,-5.0491,-5.0452,-5.0514,-5.0622,-5.0654,-5.0684,-5.0855,-5.0822,-5.0874,-5.0968,-5.1036,-5.1056,-5.1074,-5.1135,-5.1157,-5.0888,-5.0888,-5.0888,0,-5.0195,-5.0304,-5.0292,-5.0375,-5.0412,-5.0369,-5.0463,-5.0493,-5.0555,-5.0581,-5.054,-5.0676,-5.07,-5.0825,-5.0867,-5.0893,-5.0917,-5.087,-5.1054,-5.1072,-5.1088,-5.1146,-5.1169,-5.0894,-5.0894,-5.0893,-5.0892,0,-5.0396,-5.0472,-5.0542,-5.0606,-5.065,-5.0738,-5.0738,-5.0784,-5.0769,-5.0776,-5.0879,-5.0907,-5.0971,-5.1,-5.0985,-5.1123,-5.1099,-5.1057,-5.0984,-5.1119,-5.1173,-5.1195,-5.0903,-5.0901,-5.0899,-5.0897,0,0,-5.0607,-5.0664,-5.069,-5.0718,-5.0766,-5.0823,-5.0909,-5.0973,-5.1013,-5.1057,-5.1128,-5.1221,-5.1182,-5.1216,-5.1204,-5.1264,-5.1398,-5.1214,-5.1215,-5.1247,-5.1552,-5.1584,-5.161,-5.1376,-5.138,-5.1384,-5.1548,0,-5.0769,-5.092,-5.0912,-5.1053,-5.1123,-5.1083,-5.1157,-5.1194,-5.1203,-5.1261,-5.127,-5.1337,-5.1281,-5.1301,-5.1359,-5.137,-5.1459,-5.1358,-5.1441,-5.1444,-5.1432,-5.1638,-5.1672,-5.1826,-5.157,-5.1573,-5.1576,0,-5.0978,-5.1031,-5.1181,-5.1218,-5.1247,-5.1314,-5.1373,-5.143,-5.147,-5.1472,-5.1511,-5.1489,-5.1573,-5.1498,-5.1614,-5.1546,-5.1579,-5.1589,-5.1595,-5.1602,-5.1518,-5.1651,-5.1875,-5.1899,-5.1609,-5.1606,-5.1604,0,-5.1117,-5.1226,-5.133,-5.1355,-5.1401,-5.145,-5.1471,-5.1507,-5.1546,-5.1596,-5.1621,-5.168,-5.1712,-5.1758,-5.1751,-5.1697,-5.1869,-5.1793,-5.1872,-5.1873,-5.1911,-5.1908,-5.2143,-5.1932,-5.1932,-5.1931,-5.1931,0,-5.1299,-5.1391,-5.1393,-5.1457,-5.1559,-5.1548,-5.1649,-5.1664,-5.1696,-5.1761,-5.1729,-5.179,-5.1778,-5.1838,-5.1834,-5.193,-5.1945,-5.1948,-5.1946,-5.1951,-5.1951,-5.1973,-5.1962,-5.1937,-5.1936,-5.1935,-5.1934,0,-5.1472,-5.1477,-5.1587,-5.1622,-5.1633,-5.1707,-5.1736,-5.1796,-5.1802,-5.1884,-5.1903,-5.1912,-5.1982,-5.198,-5.2058,-5.2055,-5.2174,-5.2159,-5.2162,-5.2159,-5.2238,-5.2231,-5.2495,-5.2529,-5.2296,-5.2298,-5.23,0,-5.1587,-5.1658,-5.1702,-5.1744,-5.1769,-5.1837,-5.1877,-5.1869,-5.1912,-5.1963,-5.2016,-5.2083,-5.2136,-5.2248,-5.2261,-5.2321,-5.2307,-5.2396,-5.2316,-5.2319,-5.2308,-5.2305,-5.2311,-5.2411,-5.2414,-5.2416,-5.2418,0,-5.1792,-5.1791,-5.1852,-5.1915,-5.1964,-5.2012,-5.2056,-5.2092,-5.2088,-5.2137,-5.2209,-5.2251,-5.2332,-5.2398,-5.2456,-5.2475,-5.2446,-5.2443,-5.2464,-5.2471,-5.247,-5.2472,-5.2205,-5.2437,-5.2435,-5.2434,-5.2433,-5.2432,-5.194,-5.2001,-5.2042,-5.2111,-5.2143,-5.2185,-5.2243,-5.2258,-5.2318,-5.2385,-5.2375,-5.2456,-5.2493,-5.2567,-5.2592,-5.2653,-5.2622,-5.2653,-5.2661,-5.2669,-5.2678,-5.246,-5.2664,-5.2663,-5.2662,-5.2662,-5.2662,0,-5.2143,-5.2168,-5.2231,-5.2295,-5.2349,-5.2319,-5.2366,-5.2412,-5.2484,-5.2522,-5.2576,-5.2658,-5.2723,-5.2741,-5.2802,-5.2848,-5.2836,-5.2864,-5.2861,-5.2866,-5.2702,-5.2678,-5.2873,-5.2873,-5.2873,-5.2873,-5.2873,-5.2873,-5.2255,-5.2358,-5.2362,-5.2479,-5.2502,-5.2583,-5.2612,-5.265,-5.2681,-5.2775,-5.2829,-5.2841,-5.2871,-5.2935,-5.2992,-5.2996,-5.302,-5.3054,-5.3052,-5.2899,-5.2877,-5.2857,-5.2834,-5.3059,-5.3059,-5.321,-5.3212,-5.3213]}]]